DW2973 Weather Reports


Display with metric or nautical units.
time (UTC)temp
F
wind
direction
speed
MPH
gust
MPH
rain 1hr
in
rain 24hr
in
rain mn
in
humidity
%
barometer
mb
20260831093039 65 183 0.0 0.0 0.00 0.00 0.02 94 1005.9
20260831091531 63 188 0.0 0.0 0.00 0.00 0.02 94 1006.1
20260831090029 63 137 0.0 0.0 0.00 0.00 0.02 94 1006.2
20260831084527 63 184 0.0 0.0 0.00 0.00 0.02 94 1006.5
20260831083025 62 184 0.0 0.0 0.00 0.00 0.02 94 1006.4
20260831081523 62 180 0.0 0.0 0.00 0.00 0.02 94 1006.5
20260831080026 61 173 0.0 0.0 0.00 0.00 0.02 94 1006.5
20260831074521 61 215 0.0 0.0 0.00 0.00 0.02 94 1006.6
20260831073033 61 216 0.0 0.0 0.00 0.00 0.02 94 1006.7
20260831071520 61 229 0.0 0.0 0.00 0.00 0.02 94 1006.8
20260831070018 61 229 0.0 0.0 0.00 0.00 0.02 94 1006.8
20260831064523 60 229 0.0 0.0 0.00 0.00 0.02 94 1006.6
20260831063023 60 229 0.0 0.0 0.00 0.00 0.02 94 1006.5
20260831061515 59 229 0.0 0.0 0.00 0.00 0.02 94 1006.7
20260831060015 59 229 0.0 0.0 0.00 0.00 0.02 94 1006.8
20260831054514 59 229 0.0 0.0 0.00 0.00 0.02 94 1006.7
20260831053013 59 229 0.0 0.0 0.00 0.00 0.02 93 1006.8
20260831051511 58 229 0.0 0.0 0.00 0.00 0.02 93 1007.0
20260831050127 58 229 0.0 0.0 0.00 0.00 0.02 93 1007.0
20260831044510 58 229 0.0 0.0 0.00 0.00 0.02 93 1007.1
20260831043011 58 229 0.0 0.0 0.00 0.00 0.01 93 1007.1
20260831041508 58 229 0.0 0.0 0.00 0.00 0.01 93 1007.1
20260831040010 58 229 0.0 0.0 0.00 0.00 0.01 92 1007.0
20260831034507 58 229 0.0 0.0 0.00 0.00 0.01 92 1007.1
20260831033006 59 229 0.0 0.0 0.00 0.00 0.01 92 1007.1
20260831031505 59 229 1.0 0.0 0.00 0.00 0.01 92 1007.2
20260831030004 59 226 1.0 0.0 0.00 0.00 0.01 92 1007.5
20260831024506 59 234 0.0 0.0 0.00 0.00 0.01 92 1007.5
20260831023002 60 235 0.0 0.0 0.00 0.00 0.01 92 1007.4
20260831021502 60 228 0.0 0.0 0.00 0.00 0.01 92 1007.6
20260831020002 60 228 1.0 0.0 0.00 0.00 0.01 92 1007.6
20260831014504 60 229 1.0 0.0 0.00 0.00 0.01 92 1007.6
20260831013101 60 232 1.0 0.0 0.00 0.00 0.01 92 1007.7
20260831011600 60 242 1.0 0.0 0.00 0.00 0.01 92 1007.7
20260831010111 59 244 0.0 0.0 0.00 0.00 0.01 92 1007.6
20260831004606 59 244 0.0 0.0 0.00 0.00 0.01 92 1007.5
20260831003108 58 244 0.0 0.0 0.00 0.00 0.01 92 1007.5
20260831001558 57 244 0.0 0.0 0.00 0.00 0.01 92 1007.6
20260831000057 57 244 0.0 0.0 0.00 0.00 0.01 91 1007.6
20260830234605 57 244 0.0 0.0 0.00 0.00 0.01 90 1007.5
20260830233054 57 244 0.0 0.0 0.00 0.00 0.01 90 1007.5
20260830231601 58 244 0.0 0.0 0.00 0.00 0.01 90 1007.5
20260830230052 58 244 0.0 0.0 0.00 0.00 0.00 89 1007.6
20260830224601 59 244 0.0 0.0 0.00 0.00 0.00 89 1007.5
20260830223048 59 244 0.0 0.0 0.00 0.00 0.00 89 1007.5
20260830221544 60 244 0.0 0.0 0.00 0.00 0.00 88 1007.5
20260830220042 61 244 0.0 0.0 0.00 0.00 0.00 88 1007.4
20260830214545 61 243 0.0 0.0 0.00 0.00 0.05 88 1007.5
20260830213040 61 242 0.0 0.0 0.00 0.00 0.05 88 1007.5
20260830211539 61 242 0.0 0.0 0.00 0.00 0.05 88 1007.4
20260830210045 62 242 0.0 0.0 0.00 0.00 0.05 88 1007.4
20260830204541 61 225 1.0 0.0 0.00 0.00 0.05 89 1007.4
20260830203035 61 257 0.0 0.0 0.00 0.00 0.05 89 1007.1
20260830201535 61 244 0.0 0.0 0.00 0.00 0.05 89 1007.1
20260830200032 61 244 0.0 0.0 0.00 0.00 0.05 89 1007.0
20260830194531 61 244 0.0 0.0 0.00 0.00 0.05 89 1006.8
20260830193029 62 251 0.0 0.0 0.00 0.00 0.05 89 1006.5
20260830191528 62 249 0.0 0.0 0.00 0.00 0.05 90 1006.3
20260830190032 62 249 0.0 0.0 0.00 0.00 0.05 90 1006.1
20260830184525 62 248 0.0 0.0 0.00 0.00 0.05 90 1006.0
20260830183023 62 248 0.0 0.0 0.00 0.00 0.05 90 1005.9
20260830181522 63 208 0.0 0.0 0.00 0.00 0.05 90 1005.7
20260830180021 63 242 0.0 0.0 0.00 0.00 0.05 90 1005.4
20260830174521 63 230 0.0 0.0 0.00 0.00 0.04 90 1005.1
20260830173022 63 256 0.0 0.0 0.00 0.00 0.04 90 1004.8
20260830171520 63 251 1.0 0.0 0.00 0.00 0.04 90 1004.6
20260830170020 64 319 0.0 0.0 0.00 0.00 0.04 89 1004.3
20260830164519 64 320 0.0 0.0 0.00 0.00 0.04 89 1004.0
20260830163023 65 355 1.0 0.0 0.00 0.00 0.04 88 1003.6
20260830161521 66 337 0.0 0.0 0.00 0.00 0.04 88 1003.2
20260830160020 67 237 1.0 0.0 0.00 0.00 0.04 88 1003.0
20260830154518 67 244 0.0 0.0 0.00 0.00 0.04 87 1002.6
20260830153038 68 236 1.0 0.0 0.00 0.00 0.04 87 1002.2
20260830151516 69 310 0.0 0.0 0.00 0.00 0.04 89 1002.0
20260830150016 69 304 0.0 0.0 0.00 0.00 0.04 90 1001.8
20260830144517 68 232 0.0 0.0 0.00 0.00 0.03 91 1001.8
20260830143015 68 222 0.0 0.0 0.00 0.00 0.03 91 1001.6
20260830141518 68 221 0.0 0.0 0.00 0.00 0.03 91 1001.4
20260830140014 68 220 0.0 0.0 0.00 0.00 0.03 92 1001.3
20260830134516 67 218 1.0 0.0 0.00 0.00 0.03 92 1001.1
20260830133015 66 230 2.0 0.0 0.00 0.00 0.03 92 1001.1
20260830131515 66 219 1.0 0.0 0.00 0.00 0.03 91 1001.1
20260830130013 66 232 3.0 0.0 0.00 0.00 0.03 91 1001.0
20260830124512 66 248 3.0 0.0 0.00 0.00 0.03 90 1000.8
20260830123012 66 233 3.0 0.0 0.00 0.00 0.03 89 1000.7
20260830121511 68 219 4.0 0.0 0.00 0.00 0.03 88 1000.7
20260830120010 69 233 2.0 0.0 0.00 0.00 0.02 89 1000.6
20260830114507 68 241 3.0 0.0 0.00 0.00 0.02 91 1000.7
20260830113005 67 231 2.0 0.0 0.00 0.00 0.02 92 1000.7
20260830111505 66 227 1.0 0.0 0.00 0.00 0.02 92 1000.7
20260830110005 66 161 1.0 0.0 0.00 0.00 0.02 92 1000.7
20260830104504 66 229 1.0 0.0 0.00 0.00 0.02 92 1000.9
20260830103004 66 228 1.0 0.0 0.00 0.00 0.02 92 1000.8
20260830101501 67 234 1.0 0.0 0.00 0.00 0.02 92 1000.8
20260830100105 67 196 0.0 0.0 0.00 0.00 0.02 93 1000.9
20260830094555 65 240 0.0 0.0 0.00 0.00 0.02 94 1000.9